COSMOS 2289 (GLONASS)

Satellite information

Favourite Embed

Satellite Type and Status

PAYLOADIN ORBIT

Key statistics

Satellite COSMOS 2289 (GLONASS) at a glance.

Uptime

11395

Days in orbit

Revolutions

≈ 2.1

Per day

Orbit

MEO

Medium Earth Orbit

Inclination

65.4

Latest

Satellite identification and parameters

Extended collection of information and parameters for COSMOS 2289 (GLONASS).

Object identification

Identified? True

Debris? False

Object name: COSMOS 2289 (GLONASS)

International designator: 1994-050B

Object number (NORAD): 23204

Object ID (CCSDS): 23204

Country: COMMONWEALTH OF INDEPENDENT STATES (CIS)

Current information (Y/N): Y

RCS size: LARGE

Orbital parameters

Period: 675.727 minutes

Inclination: 65.4052 deg

SMA: 25507.891 km

Apoapsis: 19152.609 km

Periapsis: 19106.904 km

RAAN: 209.8174 deg

Eccentricy: 0.0008959

Argument of periapsis: 325.8843 deg

Mean anomaly: 34.09 deg

Mean motion: 2.13103666 rev/day

Mean motion (dot): 0.00000007 rev/day2

B* drag term: 0.0 1/REarth

Two-line elements (TLE)

Creation date: Oct. 22, 2025, 12:06 a.m.

Reference frame: TEME

Reference center: EARTH

Epoch: Oct. 21, 2025, 10:35 a.m. UTC

TLE line 0: 0 COSMOS 2289 (GLONASS)

TLE line 1: 1 23204U 94050B 25294.44101475 .00000007 00000-0 00000+0 0 9993

TLE line 2: 2 23204 65.4052 209.8174 0008959 325.8843 34.0900 2.13103666242585

Live tracking on map

Real-time ground track for satellite COSMOS 2289 (GLONASS).

In-orbit conjunctions

A list of the most updated potential collisions computed for object COSMOS 2289 (GLONASS).

Target Orbit TCA Probability of collision Miss distance Type
COSMOS 1711 (GLONASS) MEO 2025-09-17 14:02:11 TBA 4432.0 (m) PAYLOAD
COSMOS 1711 (GLONASS) MEO 2025-09-17 02:46:26 TBA 2976.0 (m) PAYLOAD
COSMOS 1711 (GLONASS) MEO 2025-09-16 15:30:42 TBA 2855.0 (m) PAYLOAD
COSMOS 1711 (GLONASS) MEO 2025-09-16 04:14:58 TBA 4225.0 (m) PAYLOAD
COSMOS 1711 (GLONASS) MEO 2025-08-28 04:07:41 TBA 4742.0 (m) PAYLOAD

Associated space launch

GLONASS navigation satellites

COSMOS 2289 (GLONASS) was lifted into orbit during the mission ‘Proton | Uragan 57 to 59’, on board a Proton space rocket.

The launch took place on Aug. 11, 1994, 3:27 p.m. from 81/23 (81L).

For more information about the launch, click the button.

Launch to space Proton | Uragan 57 to 59
Proton | Uragan 57 to 59

Agency: N/A

Status: Launch Successful

Launch date: Aug. 11, 1994, 3:27 p.m. UTC

Rocket: Proton

Launch pad: 81/23 (81L)

Location: Baikonur Cosmodrome, Republic of Kazakhstan

...

Latest news about this satellite

There are no fresh news available about this satellite. Check back as we update our databases every day.


Newsletter sign-up

Weekly statistics, charts and insights to help you stay on top of the space industry.